Simultaneous Nadir Overpasses (SNOs) Predictions

Prediction of SNOs between LANDSAT-8 and NPP Satellite Orbit:

Table of predicted SNOs for the next 14.0 days since TLE Epoch: 12/28/2014
Index Date (LANDSAT-8) Time (LANDSAT-8) Lat,Lon (LANDSAT-8) SZA (LANDSAT-8 ) Date (NPP) Time (NPP) Lat,Lon (NPP) SZA (NPP ) Distance(km) Time Diff (sec)
1 12/29/2014 09:45:06 -70.84,-148.81 86.03 12/29/2014 09:44:15 -70.84,-148.89 86.02 2.80 51
2 12/29/2014 10:34:33 70.74, 18.68 93.88 12/29/2014 10:34:59 70.72, 18.62 93.86 3.00 26
3 12/29/2014 11:24:19 -69.75,-175.12 87.10 12/29/2014 11:25:24 -69.75,-172.56 87.14 98.48 65
4 01/01/2015 02:01:33 -70.80, -32.98 86.24 01/01/2015 02:01:05 -70.81, -33.06 86.23 3.25 28
5 01/01/2015 02:51:00 70.70, 134.51 93.66 01/01/2015 02:51:49 70.69, 134.45 93.65 2.66 49
6 01/03/2015 17:28:28 70.96, -84.48 93.69 01/03/2015 17:27:16 71.03, -84.95 93.77 18.57 72
7 01/03/2015 18:18:00 -70.74, 82.81 86.54 01/03/2015 18:17:54 -70.74, 82.84 86.54 1.16 6
8 01/03/2015 19:07:27 70.63,-109.71 93.36 01/03/2015 19:08:38 70.62,-109.66 93.34 2.31 71
9 01/06/2015 09:44:55 70.80, 31.17 93.25 01/06/2015 09:44:01 70.80, 31.19 93.25 0.99 54
10 01/06/2015 10:34:24 -70.74,-161.29 86.82 01/06/2015 10:34:43 -70.72,-161.36 86.84 3.45 19
11 01/06/2015 11:24:06 69.81, 5.01 92.28 01/06/2015 11:25:12 69.81, 7.36 92.22 90.38 66
12 01/09/2015 02:01:20 70.78, 147.02 92.88 01/09/2015 02:00:51 70.80, 146.98 92.91 2.59 29
13 01/09/2015 02:50:50 -70.66, -45.52 87.24 01/09/2015 02:51:32 -70.66, -45.48 87.24 1.32 42




NCC Satellite Simultaneous Nadir Overpasses (SNOs) Prediction Service
